Weather in Zarya

Russia / Sakha (Yakutia) Republic     62°06′18″N   114°11′19″E
temp.,
°C
wind,
m/s
gust,
m/s
humid.,
%
clouds,
%
prec.,
mm/h
press.,
hPa
HPBL,
m
20 january, wed
wed2000:00−43nne4696100 0.1 1014276
03:00−43n3596100 0.1 1017246
06:00−44n2497100 0.0 1019209
09:00−43n2397100 0.1 1021204
12:00−43nnw1295100 0.0 1023160
15:00−42wnw1394100 0.1 1025249
18:00−44w2297100 0.0 102725
21:00−45w239593 0.0 102840
21 january, thu
thu2100:00−45w249685 0.0 1030127
03:00−45w349786 0.0 1031130
06:00−44w369693 0.0 1032213
09:00−43w369697 0.1 1032277
12:00−42w3595100 0.0 1033289
15:00−40wsw3594100 0.1 1033351
18:00−41wsw2298100 0.0 103334
21:00−41wsw1298100 0.1 103418
22 january, fri
fri2200:00−43wsw129999 0.0 103318
03:00−44w119998 0.0 103318
06:00−45wnw0110092 0.0 103318
09:00−46nne0110080 0.0 103318
12:00−44ne119662 0.0 103319
15:00−42ne129659 0.0 103255
18:00−46ene229652 0.0 103218
21:00−47ene229752 0.0 103218
23 january, sat
sat2300:00−47ene229753 0.0 103218
03:00−48ene239754 0.0 103325
06:00−48ene239855 0.0 103330
09:00−49ene239756 0.0 103426
12:00−47ene239656 0.0 103594
15:00−44ne239656 0.0 1035109
18:00−47ene229651 0.0 103818
21:00−47ese129750 0.0 104018
24 january, sun
sun2400:00−49e119846 0.0 104018
03:00−49e119848 0.0 104118
06:00−48ese119879 0.0 104218
09:00−47sse129773 0.0 104318
12:00−43ese119589 0.0 104349
15:00−39ese129195 0.0 1042210
18:00−39ese1296100 0.0 104343
21:00−39se1298100 0.1 1043109